(494609) = 2015 TC330 = 2017 BU124

Discovered at Mount Lemmon on 2007-11-11 by Mt. Lemmon Survey.

Orbit

Orbit type: Main Belt

Note: WebGL enabled browser required.

epoch2023-09-13.0
epoch JD2460200.5
perihelion date2021-03-07.29693
perihelion JD2459280.79693
argument of perihelion (°)23.13621
ascending node (°)95.18980
inclination (°)12.86919
eccentricity0.0337423
perihelion distance (AU)2.5773871
Tisserand w.r.t. Jupiter3.3
ΔV w.r.t. Earth (km/sec)10.8
semimajor axis (AU)2.6673910
mean anomaly (°)208.07574
mean daily motion (°/day)0.22624230
aphelion distance (AU)2.757
period (years)4.36
P-vector [x]-0.46465864
P-vector [y]0.77363302
P-vector [z]0.43079496
Q-vector [x]-0.85725807
Q-vector [y]-0.51488698
Q-vector [z]0.00000278
absolute magnitude16.84
phase slope0.15
uncertainty0
referenceMPEC 2023-R69
observations used182
oppositions10
arc length (days)5780
first opposition used2007
last opposition used2023
residual rms (arc-secs)0.73
perturbers coarse indicatorM-v
perturbers precise indicator003Ek
first observation date used2007-11-11.0
last observation date used2023-09-08.0
computer nameMPCLINUX
Minimum Orbit Intersection Distances (in AU)
for orbit epoch: 2460200.5, reference: E2023-R69
Mercury2.23248
Venus1.85958
Earth1.59612
Mars0.95067
Jupiter2.35371
Saturn6.46258
Uranus15.9004
Neptune27.2164

Observations

188 total observations over interval: 2007 11 11.40498 – 2023 09 14.326949
These data are available for download (format description).

Date (UT) J2000 RA J2000 Dec Magn Location Ref
2007 11 11.40498 08 02 11.11 +20 59 42.1 22.4 V G96 – Mt. Lemmon Survey MPS 767353
2007 11 11.41224 08 02 11.32 +20 59 43.1 21.7 V G96 – Mt. Lemmon Survey MPS 767353
2007 11 11.41934 08 02 11.50 +20 59 44.4 21.4 V G96 – Mt. Lemmon Survey MPS 767353
2007 11 11.42657 08 02 11.68 +20 59 45.8 21.6 V G96 – Mt. Lemmon Survey MPS 767353
2007 12 03.43674 08 06 31.06 +22 34 08.1   291 – LPL/Spacewatch II MPS 767353
2007 12 03.44305 08 06 31.02 +22 34 10.5   291 – LPL/Spacewatch II MPS 767353
2007 12 03.44896 08 06 30.97 +22 34 12.3   291 – LPL/Spacewatch II MPS 767353
2007 12 31.24023 07 51 50.16 +25 54 55.2 19.9 V 691 – Steward Observatory, Kitt Peak-Spacewatch MPS 767353
2007 12 31.25788 07 51 49.20 +25 55 04.1 20.0 V 691 – Steward Observatory, Kitt Peak-Spacewatch MPS 767353
2007 12 31.27300 07 51 48.37 +25 55 11.5 20.1 V 691 – Steward Observatory, Kitt Peak-Spacewatch MPS 767353
2009 04 20.28617 15 24 28.95 -01 58 27.9 20.4 V 691 – Steward Observatory, Kitt Peak-Spacewatch MPS 767353
2009 04 20.30144 15 24 28.23 -01 58 25.5 21.0 V 691 – Steward Observatory, Kitt Peak-Spacewatch MPS 767353
2009 04 20.31414 15 24 27.60 -01 58 23.2 21.0 V 691 – Steward Observatory, Kitt Peak-Spacewatch MPS 767353
2009 04 30.22367 15 16 14.84 -01 35 51.8 20.7 V 691 – Steward Observatory, Kitt Peak-Spacewatch MPS 767353
2009 04 30.23892 15 16 13.98 -01 35 50.2 20.7 V 691 – Steward Observatory, Kitt Peak-Spacewatch MPS 767353
2009 04 30.25417 15 16 13.15 -01 35 48.6 20.2 V 691 – Steward Observatory, Kitt Peak-Spacewatch MPS 767353
2014 05 06.55134 19 50 35.396 -21 03 53.61 21.1 w F51 – Pan-STARRS 1, Haleakala MPS 767353
2014 05 06.56228 19 50 35.678 -21 03 55.22 21.1 w F51 – Pan-STARRS 1, Haleakala MPS 767353
2014 05 06.57321 19 50 35.948 -21 03 56.93 21.3 w F51 – Pan-STARRS 1, Haleakala MPS 767353
2014 05 06.58417 19 50 36.219 -21 03 58.45 21.5 w F51 – Pan-STARRS 1, Haleakala MPS 767353
2014 06 04.50884 19 53 03.027 -22 58 20.77 20.8 w F51 – Pan-STARRS 1, Haleakala MPS 767353
2014 06 04.51945 19 53 02.809 -22 58 24.33 20.8 w F51 – Pan-STARRS 1, Haleakala MPS 767353
2014 06 04.53008 19 53 02.605 -22 58 27.69 21.0 w F51 – Pan-STARRS 1, Haleakala MPS 767353
2014 06 04.54072 19 53 02.393 -22 58 31.41 21.2 w F51 – Pan-STARRS 1, Haleakala MPS 767353
2015 10 13.41374 02 37 20.395 -03 57 49.55 20.2 w F51 – Pan-STARRS 1, Haleakala MPS 639447
2015 10 13.42790 02 37 19.702 -03 57 53.08 20.4 w F51 – Pan-STARRS 1, Haleakala MPS 639447
2015 10 13.44201 02 37 19.035 -03 57 56.80 20.4 w F51 – Pan-STARRS 1, Haleakala MPS 639447
2015 10 13.45613 02 37 18.344 -03 58 00.39 20.6 w F51 – Pan-STARRS 1, Haleakala MPS 639447
2015 10 15.46107 02 35 42.990 -04 06 23.74 20.8 w F51 – Pan-STARRS 1, Haleakala MPS 639447
2015 10 15.47520 02 35 42.277 -04 06 27.16 21.0 w F51 – Pan-STARRS 1, Haleakala MPS 639447
2015 10 15.50344 02 35 40.853 -04 06 34.28 20.9 w F51 – Pan-STARRS 1, Haleakala MPS 639447
2015 11 08.39822 02 14 16.064 -05 00 02.73 20.8 w F51 – Pan-STARRS 1, Haleakala MPS 767353
2015 11 08.41060 02 14 15.400 -05 00 02.70 20.8 w F51 – Pan-STARRS 1, Haleakala MPS 767353
2015 11 08.42296 02 14 14.698 -05 00 02.79 20.5 w F51 – Pan-STARRS 1, Haleakala MPS 767353
2015 11 08.43533 02 14 14.013 -05 00 02.69 20.4 w F51 – Pan-STARRS 1, Haleakala MPS 767353
2015 12 04.16230 01 56 54.19 -03 49 43.4   691 – Steward Observatory, Kitt Peak-Spacewatch MPS 767353
2015 12 04.16960 01 56 54.00 -03 49 41.1   691 – Steward Observatory, Kitt Peak-Spacewatch MPS 767353
2015 12 04.17691 01 56 53.82 -03 49 38.6   691 – Steward Observatory, Kitt Peak-Spacewatch MPS 767353
2017 01 04.48195 10 28 12.675 +22 10 24.54 20.8 w F51 – Pan-STARRS 1, Haleakala MPS 766302
2017 01 04.49356 10 28 12.650 +22 10 29.94 21.1 w F51 – Pan-STARRS 1, Haleakala MPS 766302
2017 01 04.50520 10 28 12.607 +22 10 35.56 21.3 w F51 – Pan-STARRS 1, Haleakala MPS 766302
2017 01 04.51691 10 28 12.574 +22 10 41.27 21.2 w F51 – Pan-STARRS 1, Haleakala MPS 766302
2017 01 26.41969 10 20 53.21 +25 32 35.1 20.6 V G96 – Mt. Lemmon Survey MPS 766302
2017 01 26.42875 10 20 52.87 +25 32 40.0 20.6 V G96 – Mt. Lemmon Survey MPS 766302
2017 01 26.43309 10 20 52.64 +25 32 42.9 21.1 V G96 – Mt. Lemmon Survey MPS 766302
2017 01 30.43805 10 18 10.604 +26 12 19.26 20.5 w F51 – Pan-STARRS 1, Haleakala MPS 766302
2017 01 30.45084 10 18 10.029 +26 12 26.93 20.4 w F51 – Pan-STARRS 1, Haleakala MPS 766302
2017 01 30.46373 10 18 09.445 +26 12 34.60 20.3 w F51 – Pan-STARRS 1, Haleakala MPS 766302
2017 02 02.27218 10 16 03.63 +26 39 55.7 20.5 V 691 – Steward Observatory, Kitt Peak-Spacewatch MPS 766302
2017 02 02.28368 10 16 03.05 +26 40 02.6 20.5 V 691 – Steward Observatory, Kitt Peak-Spacewatch MPS 766302
2017 02 02.29517 10 16 02.49 +26 40 09.1 20.3 V 691 – Steward Observatory, Kitt Peak-Spacewatch MPS 766302
2017 02 06.42652 10 12 41.81 +27 19 15.0 20.5 V G96 – Mt. Lemmon Survey MPS 766302
2017 02 06.43238 10 12 41.50 +27 19 18.6 19.4 V G96 – Mt. Lemmon Survey MPS 766302
2017 02 06.43828 10 12 41.24 +27 19 21.1 19.8 V G96 – Mt. Lemmon Survey MPS 766302
2017 02 14.48312 10 05 35.216 +28 29 08.65 20.0 i F51 – Pan-STARRS 1, Haleakala MPS 767353
2017 02 14.49598 10 05 34.477 +28 29 14.84 20.3 i F51 – Pan-STARRS 1, Haleakala MPS 767353
2017 02 14.50887 10 05 33.750 +28 29 20.83 20.3 i F51 – Pan-STARRS 1, Haleakala MPS 767353
2017 02 14.52214 10 05 32.998 +28 29 27.19 20.5 i F51 – Pan-STARRS 1, Haleakala MPS 767353
2017 02 22.23030 09 58 29.00 +29 24 50.0 20.2 V G96 – Mt. Lemmon Survey MPS 768360
2017 02 22.23457 09 58 28.75 +29 24 51.6 20.7 V G96 – Mt. Lemmon Survey MPS 768360
2017 02 22.23883 09 58 28.50 +29 24 53.6 20.4 V G96 – Mt. Lemmon Survey MPS 768360
2017 02 22.24307 09 58 28.27 +29 24 54.7 19.9 V G96 – Mt. Lemmon Survey MPS 768360
2017 02 27.31356 09 53 57.886 +29 53 46.48 20.2 w F51 – Pan-STARRS 1, Haleakala MPS 772185
2017 02 27.32511 09 53 57.267 +29 53 50.05 20.2 w F51 – Pan-STARRS 1, Haleakala MPS 772185
2017 02 27.33674 09 53 56.635 +29 53 53.57 20.1 w F51 – Pan-STARRS 1, Haleakala MPS 772185
2017 02 27.34828 09 53 56.019 +29 53 57.23 20.2 w F51 – Pan-STARRS 1, Haleakala MPS 772185
2017 03 05.23079 09 49 06.25 +30 19 03.2 20.6 G G45 – Space Surveillance Telescope, Atom Site MPS 1611119
2017 03 05.23425 09 49 06.05 +30 19 03.5 20.7 G G45 – Space Surveillance Telescope, Atom Site MPS 1611119
2017 03 05.31797 09 49 02.00 +30 19 21.0 20.6 G G45 – Space Surveillance Telescope, Atom Site MPS 1611119
2017 03 05.37328 09 48 59.31 +30 19 30.8 21.0 G G45 – Space Surveillance Telescope, Atom Site MPS 1611119
2017 03 05.41839 09 48 57.22 +30 19 40.9 20.4 G G45 – Space Surveillance Telescope, Atom Site MPS 1611119
2017 03 28.37030 09 37 35.063 +30 33 36.53 21.8 w F51 – Pan-STARRS 1, Haleakala MPS 782062
2017 03 28.38154 09 37 34.928 +30 33 35.55 21.8 w F51 – Pan-STARRS 1, Haleakala MPS 782062
2017 03 28.39276 09 37 34.780 +30 33 33.87 21.8 w F51 – Pan-STARRS 1, Haleakala MPS 782062
2018 06 05.39487 16 54 33.762 -15 06 15.28 20.0 w F51 – Pan-STARRS 1, Haleakala MPS 896577
2018 06 05.40781 16 54 32.987 -15 06 17.36 20.2 w F51 – Pan-STARRS 1, Haleakala MPS 896577
2018 06 05.43369 16 54 31.408 -15 06 21.54 20.2 w F51 – Pan-STARRS 1, Haleakala MPS 896577
2018 07 04.28845 16 30 03.612 -16 45 25.91 20.5 w F52 – Pan-STARRS 2, Haleakala MPS 904562
2018 07 04.29835 16 30 03.243 -16 45 28.44 20.5 w F52 – Pan-STARRS 2, Haleakala MPS 904562
2019 08 09.53809 00 29 09.013 -15 40 30.37 20.7 w F52 – Pan-STARRS 2, Haleakala MPS 1022027
2019 08 09.54911 00 29 08.940 -15 40 35.12 20.6 w F52 – Pan-STARRS 2, Haleakala MPS 1022027
2019 08 09.56005 00 29 08.863 -15 40 39.91 20.6 w F52 – Pan-STARRS 2, Haleakala MPS 1022027
2019 08 09.57101 00 29 08.786 -15 40 45.03 20.6 w F52 – Pan-STARRS 2, Haleakala MPS 1022027
2019 08 23.53168 00 25 30.553 -17 31 18.37 20.7 i F52 – Pan-STARRS 2, Haleakala MPS 1031877
2019 08 23.54328 00 25 30.230 -17 31 24.10 20.7 i F52 – Pan-STARRS 2, Haleakala MPS 1031877
2019 08 23.55488 00 25 29.897 -17 31 29.95 20.3 i F52 – Pan-STARRS 2, Haleakala MPS 1031877
2019 09 06.50524 00 17 21.800 -19 26 07.16 21.4 w F51 – Pan-STARRS 1, Haleakala MPS 1031877
2019 09 06.51548 00 17 21.335 -19 26 12.16 21.2 w F51 – Pan-STARRS 1, Haleakala MPS 1031877
2019 09 06.53596 00 17 20.412 -19 26 21.61 20.8 w F51 – Pan-STARRS 1, Haleakala MPS 1031877
2019 09 24.43796 00 02 47.732 -21 22 54.27 20.6 w F51 – Pan-STARRS 1, Haleakala MPS 1056797
2019 09 24.44890 00 02 47.146 -21 22 57.38 20.9 w F51 – Pan-STARRS 1, Haleakala MPS 1056797
